Snowfall_Accumulation
nan nan nan nan nan nan nan nan nan nan nan nan nan nan nan nan nan 0.0 0.0 0.0 0.0 0.6 0.0 0.0 0.0 0.1 0.3 0.5 2.7 0.1 3.3 1.9 2.9 4.5 3.1 3.0 0.8 0.0 0.2 0.0 0.0 0.2 3.6 5.3 3.0 6.6 6.8 0.0 0.0 0.1 0.2 0.0 0.0 0.0
nan nan nan nan nan nan nan nan nan nan nan nan nan nan nan nan nan nan 0.0 0.0 0.0 0.8 0.2 0.0 0.0 0.0 0.0 0.0 0.5 0.4 1.3 0.7 2.4 3.5 2.6 2.2 4.6 3.1 0.1 1.1 0.0 3.1 0.8 1.6 0.8 3.1 0.0 0.0 0.0 0.0 0.0 0.0 0.0 0.0
nan nan nan nan nan nan nan nan nan nan nan nan nan nan nan nan nan nan 0.0 0.0 0.1 1.4 0.3 0.0 0.0 0.0 0.0 0.0 0.0 2.3 0.0 0.0 0.3 0.3 3.6 2.2 1.1 0.5 2.3 0.7 0.2 0.0 0.0 1.0 0.5 0.0 0.0 0.0 0.0 0.0 0.0 0.0 0.0 0.0
nan nan nan nan nan nan nan nan nan nan nan nan nan nan nan nan nan nan 0.0 0.0 0.2 0.8 3.6 0.3 0.0 0.0 0.0 0.0 0.0 0.0 0.0 0.0 0.0 0.1 2.4 2.2 1.9 0.2 0.7 0.2 0.4 0.2 0.1 0.1 0.0 0.0 0.0 0.0 0.0 0.0 0.0 0.0 0.0 0.0
nan nan nan nan nan nan nan nan nan nan nan nan nan nan nan nan nan nan 0.0 0.0 0.0 0.4 1.5 1.3 0.0 0.0 0.0 0.0 0.0 0.0 0.0 0.0 0.0 0.7 1.5 1.6 0.1 0.5 0.0 0.1 0.4 0.0 0.0 0.8 1.2 0.0 0.0 0.0 0.0 0.0 0.0 0.0 0.0 0.0
nan nan nan nan nan nan nan nan nan nan nan nan nan nan nan nan nan 0.0 7.9 0.0 0.0 0.0 0.7 3.9 0.0 0.0 0.0 0.0 0.0 0.0 0.0 0.0 0.0 0.0 0.4 0.1 0.0 0.2 2.1 0.6 0.0 0.0 0.0 0.0 0.2 0.0 0.0 0.0 0.0 0.0 0.0 0.0 0.0 0.0
nan nan nan nan nan nan nan nan nan nan nan nan nan nan nan nan 0.0 1.1 0.2 0.0 nan 0.0 1.7 1.9 1.1 0.0 0.0 0.0 0.0 0.0 0.0 0.0 0.0 0.0 0.1 0.0 0.0 0.3 0.8 0.3 0.0 0.0 0.0 0.0 0.0 0.0 0.3 0.0 0.4 0.0 0.0 0.0 0.0 0.0
nan nan nan nan nan nan nan nan nan nan nan nan nan nan nan nan nan 0.1 0.0 nan nan 0.1 0.1 3.7 2.6 1.3 0.0 0.6 1.0 0.0 0.3 0.2 0.2 0.1 0.1 0.1 0.0 0.1 1.1 0.0 0.0 0.0 0.0 0.0 0.0 0.0 0.0 0.0 0.0 0.0 0.0 0.0 0.0 0.0
nan nan nan nan nan nan nan nan nan nan nan nan nan nan 0.0 0.3 1.5 0.0 nan nan 0.0 0.7 2.7 2.1 1.3 7.8 0.0 0.3 0.2 0.2 0.1 3.5 0.1 1.3 0.3 0.1 0.4 1.7 0.0 0.0 0.0 0.0 0.0 0.0 0.0 0.0 0.0 0.0 0.0 0.0 0.0 0.0 0.0 0.0
nan nan nan nan nan nan nan nan nan nan nan nan 0.0 1.2 11.0 0.3 nan nan 0.6 4.7 4.4 1.0 0.8 1.4 0.0 2.3 0.4 0.3 1.8 1.1 1.1 0.9 2.4 0.9 0.0 1.3 0.2 0.0 0.0 0.0 0.0 0.1 0.0 0.0 0.3 0.5 0.2 0.2 0.0 0.0 0.0 0.0 0.0 0.0
nan nan nan nan nan nan nan nan nan nan nan 0.2 2.9 1.4 0.0 nan 0.0 0.7 7.9 4.8 1.3 1.9 0.4 0.5 0.0 0.2 0.0 1.9 1.3 0.2 1.5 0.9 2.5 0.3 1.1 0.9 1.0 0.2 0.0 0.2 0.1 0.2 0.1 0.1 0.0 0.0 0.0 0.0 0.0 0.0 0.0 0.0 0.0 0.0
nan nan nan nan nan nan nan nan nan 0.0 0.0 0.0 0.0 0.0 0.0 0.7 4.2 2.9 4.3 1.4 0.3 0.4 0.9 0.8 1.2 0.3 0.8 0.0 1.5 1.0 0.6 1.0 0.2 0.2 3.6 1.4 0.9 0.3 0.2 0.8 0.3 0.0 0.0 0.0 0.0 0.0 0.0 0.0 0.0 0.0 0.0 0.0 0.0 0.2
nan nan nan nan nan nan nan nan nan nan nan 0.0 0.7 1.4 2.3 3.6 29.1 1.9 3.4 1.2 4.2 0.5 0.7 0.4 5.4 0.7 0.8 0.3 1.3 1.9 4.3 4.2 0.5 11.8 1.1 0.7 0.1 0.6 0.2 0.0 0.0 0.0 0.0 0.0 0.0 0.0 0.0 0.0 0.0 0.1 0.4 0.4 0.9 0.9
nan nan nan nan nan nan nan nan nan 0.0 0.1 1.5 1.2 31.4 5.5 2.6 0.8 0.5 0.3 0.2 0.3 0.2 0.6 0.9 2.5 2.1 1.0 1.8 1.1 3.5 0.7 1.2 6.5 4.9 1.7 1.1 0.9 0.0 0.0 0.0 0.0 0.0 0.1 0.1 0.1 0.1 0.2 0.3 0.7 1.1 2.3 2.6 1.6 0.5
nan nan nan nan nan nan nan nan nan 0.0 0.6 3.7 1.1 14.6 3.2 0.7 0.6 0.7 0.5 0.4 0.2 0.5 1.7 4.8 2.3 1.0 2.0 3.0 0.7 0.5 4.1 4.0 2.3 2.8 1.7 1.3 0.2 0.1 0.1 0.1 0.1 0.5 2.1 1.9 1.2 2.2 3.2 2.5 1.8 3.2 2.9 1.9 0.9 4.1
nan nan 0.0 nan nan nan nan nan 0.0 0.2 2.5 1.2 0.6 1.7 1.1 2.6 6.2 4.0 1.6 1.6 0.3 0.4 1.2 2.9 2.3 1.6 1.8 1.0 0.5 1.0 0.6 3.1 2.6 1.5 0.7 0.3 0.1 0.1 0.1 0.6 1.3 1.3 1.6 2.2 2.0 2.0 3.6 5.7 5.8 4.7 4.9 5.8 7.9 6.7
nan 0.0 nan nan nan nan nan 0.1 0.1 2.7 1.7 0.6 8.5 1.3 1.6 1.5 3.8 2.2 0.8 0.6 0.2 1.6 5.8 2.4 4.0 1.3 1.1 1.9 0.5 0.6 3.4 2.6 1.5 1.0 0.6 0.0 0.2 0.4 1.3 1.4 2.5 1.7 2.9 3.2 3.3 3.1 3.8 3.1 3.4 2.7 5.3 7.0 5.0 5.5
0.0 0.0 nan nan nan nan 0.3 0.0 3.3 2.4 1.6 1.5 7.9 4.9 1.6 1.7 2.9 2.1 1.1 0.6 1.0 1.3 2.0 2.5 1.5 1.1 3.9 0.7 3.1 2.7 2.8 1.7 0.8 0.9 0.9 0.6 0.5 1.4 0.6 0.6 1.4 1.2 1.9 4.3 2.9 3.5 3.1 2.9 2.2 2.4 1.8 2.5 3.7 5.2
0.0 0.0 nan nan 0.0 0.3 3.6 1.9 0.5 3.6 3.8 1.6 1.5 1.0 1.0 3.0 1.8 1.1 1.4 0.9 0.9 0.8 2.6 1.3 1.5 2.3 2.8 2.1 4.1 2.7 1.8 1.2 2.0 2.6 2.6 2.8 1.8 2.5 2.6 1.9 1.5 1.9 2.6 2.6 1.8 2.3 2.2 1.5 1.0 1.4 1.5 1.8 2.3 3.3
nan nan nan nan nan 1.8 3.0 2.2 0.1 0.4 1.5 2.1 0.8 1.2 1.3 2.3 1.7 4.6 2.4 1.3 1.0 3.0 3.1 2.3 2.4 2.9 2.5 2.1 2.2 2.7 1.8 1.3 1.1 2.6 3.7 4.2 3.6 1.9 2.6 1.9 2.5 1.6 1.6 1.2 2.2 0.8 1.9 1.9 1.8 1.7 1.8 2.0 3.4 4.8
nan nan nan 0.0 0.0 0.5 1.0 0.9 0.8 0.4 0.7 1.2 0.8 0.4 3.8 0.7 1.8 3.3 2.2 0.4 4.3 3.0 2.0 1.9 4.4 2.9 1.5 3.0 1.7 1.1 1.3 0.5 1.6 1.5 2.1 5.5 4.2 2.0 2.4 2.9 1.9 1.6 1.3 2.3 3.6 4.0 2.2 3.2 3.5 2.9 8.8 9.8 6.0 4.3
0.0 nan 0.1 0.1 3.2 3.6 3.8 0.2 0.3 0.5 1.0 0.8 0.8 0.4 2.9 8.4 7.2 3.7 0.4 2.5 2.0 3.1 1.8 2.2 2.4 2.2 1.7 1.5 2.5 0.5 1.1 0.3 0.5 1.2 0.8 0.9 3.5 2.5 2.7 2.6 1.7 3.0 2.5 3.5 2.1 4.6 3.4 2.3 3.0 3.7 6.8 9.8 3.6 4.6
nan 0.1 0.9 0.8 4.4 8.3 11.3 0.2 0.5 0.3 2.6 1.8 0.6 1.3 3.1 2.8 1.5 0.1 3.6 1.0 3.0 3.1 2.2 1.7 1.1 0.9 1.6 1.4 0.6 0.5 1.0 0.4 2.1 2.8 3.3 2.6 2.1 2.2 2.0 2.0 1.8 4.1 3.7 2.6 1.3 2.2 3.0 2.4 3.7 9.2 6.5 7.3 7.5 16.8
nan 0.9 5.4 4.2 4.7 13.6 0.7 4.7 0.5 0.6 0.7 1.6 1.8 2.3 0.4 1.0 0.4 2.3 3.4 4.2 4.3 1.5 1.5 1.1 1.6 2.2 1.3 0.3 1.5 1.9 2.3 1.1 1.3 1.7 1.8 1.7 1.9 2.7 1.5 1.5 1.7 1.5 1.2 1.1 1.5 2.8 3.1 8.9 6.3 4.2 11.1 19.7 22.6 20.5
13.1 19.9 6.5 30.2 2.7 8.1 6.1 4.1 1.5 1.2 5.1 4.3 3.4 3.4 8.0 0.8 4.9 3.3 1.1 4.4 3.1 3.4 2.9 1.9 1.0 1.2 1.5 2.4 2.1 2.2 0.8 1.1 1.9 1.9 2.1 1.7 2.1 2.2 2.0 1.4 1.5 1.4 1.3 5.7 8.7 11.0 11.6 11.0 12.5 11.8 7.3 22.2 8.0 9.9
36.6 12.3 15.8 5.8 12.9 7.3 5.8 8.9 9.0 8.8 4.9 5.8 4.7 1.9 1.4 4.1 5.2 6.9 4.1 7.0 7.6 4.7 16.3 13.3 8.0 2.5 1.7 1.4 2.0 1.9 2.0 1.5 1.3 1.7 2.3 1.3 1.6 4.6 6.3 5.8 4.8 4.4 1.7 3.8 8.2 14.6 10.8 12.7 14.7 7.4 14.5 7.3 8.0 18.7
34.1 15.3 2.4 0.7 0.7 0.5 8.7 6.8 1.9 4.4 6.3 9.4 5.8 6.9 7.6 14.9 10.5 4.7 3.0 3.1 2.7 4.6 2.2 2.0 2.0 1.8 2.1 1.9 1.7 2.0 1.5 1.6 1.3 1.8 1.3 1.2 1.0 1.0 2.8 8.8 5.3 3.8 1.8 3.7 6.7 15.1 16.5 16.2 17.5 12.0 15.6 15.4 17.0 19.3
5.8 2.6 12.3 6.2 8.1 1.3 7.0 4.4 5.5 7.5 4.6 1.7 4.8 9.2 11.1 10.4 8.1 7.5 5.9 5.0 5.7 1.9 1.5 1.4 1.2 1.3 1.8 2.2 3.0 3.7 3.3 3.0 3.4 2.2 1.7 1.4 1.3 3.1 3.3 2.7 2.5 5.9 3.8 9.4 11.7 14.0 10.8 17.2 19.5 19.4 18.1 19.9 24.7 20.0
6.7 3.5 3.7 15.0 6.2 4.7 9.0 9.0 7.7 3.6 1.9 3.5 13.9 9.6 7.8 5.0 11.7 8.1 7.1 6.4 6.1 5.0 5.6 7.0 10.2 10.0 5.5 4.3 6.9 4.9 6.6 8.1 6.0 8.6 9.7 12.1 10.4 9.9 4.7 5.4 5.9 8.2 7.3 8.4 6.5 7.8 8.8 13.0 15.7 18.2 15.6 22.3 21.8 24.2
6.5 2.3 7.0 8.3 12.0 7.7 17.6 10.9 14.0 11.1 1.4 3.8 1.9 1.8 2.6 9.4 15.1 9.1 9.4 8.3 10.1 20.5 28.6 22.8 21.2 19.0 28.4 21.0 18.3 12.1 11.4 14.1 13.0 20.1 23.0 17.1 13.9 12.8 14.0 14.5 12.9 11.8 11.6 21.6 14.8 7.6 8.1 15.5 14.1 24.7 23.4 24.3 25.0 29.7
2.0 6.7 8.6 5.3 11.5 19.8 18.6 19.0 19.2 10.4 10.4 15.9 16.8 18.5 14.0 11.5 14.2 10.2 8.3 12.0 11.9 31.7 32.6 35.3 34.3 32.3 28.7 20.4 30.4 27.9 21.2 26.9 12.6 9.3 8.6 12.9 17.4 20.5 19.7 16.6 15.3 16.5 16.7 16.4 21.3 18.2 19.6 23.8 22.5 22.9 19.4 16.7 19.6 22.2
10.4 16.1 19.3 11.4 15.0 25.3 13.9 27.8 21.5 19.1 24.9 24.3 29.2 23.1 29.2 25.8 17.9 14.4 16.0 23.0 27.0 29.4 9.1 25.7 35.7 19.2 17.6 15.8 23.3 18.4 10.1 13.8 14.2 14.5 12.5 18.1 21.1 23.8 14.5 11.8 22.9 20.9 17.2 19.1 17.0 18.5 15.6 22.7 24.3 25.6 23.1 20.2 19.5 18.9
25.1 18.0 13.6 12.7 26.8 14.8 18.0 20.8 5.7 20.8 19.2 23.9 28.5 24.9 25.7 22.7 16.9 21.0 9.3 21.3 26.7 27.4 23.9 30.1 31.3 34.8 20.2 16.9 16.4 17.8 12.2 15.8 14.1 10.6 9.3 9.3 9.3 10.7 18.5 24.8 27.3 22.5 13.8 19.6 21.6 19.9 17.0 13.7 17.6 17.9 20.5 25.1 23.6 22.0
Water_Equivalent
nan nan nan nan nan nan nan nan nan nan nan nan nan nan nan nan nan 0.00 0.00 0.00 0.01 0.15 0.00 0.00 0.00 0.02 0.07 0.11 0.53 0.03 0.58 0.36 0.58 0.78 0.51 0.52 0.17 0.01 0.04 0.00 0.00 0.04 0.57 0.91 0.47 0.79 0.68 0.00 0.00 0.02 0.03 0.00 0.00 0.00
nan nan nan nan nan nan nan nan nan nan nan nan nan nan nan nan nan nan 0.02 0.00 0.00 0.26 0.06 0.00 0.00 0.00 0.00 0.00 0.11 0.10 0.26 0.15 0.57 0.62 0.44 0.35 0.66 0.51 0.02 0.22 0.00 0.51 0.13 0.26 0.12 0.50 0.01 0.00 0.00 0.00 0.00 0.00 0.00 0.00
nan nan nan nan nan nan nan nan nan nan nan nan nan nan nan nan nan nan 0.00 0.00 0.03 0.37 0.08 0.01 0.00 0.00 0.00 0.00 0.00 0.42 0.01 0.01 0.07 0.07 0.68 0.42 0.18 0.10 0.42 0.12 0.05 0.01 0.00 0.18 0.10 0.00 0.00 0.00 0.00 0.00 0.00 0.00 0.00 0.00
nan nan nan nan nan nan nan nan nan nan nan nan nan nan nan nan nan nan 0.00 0.00 0.05 0.20 0.83 0.09 0.00 0.00 0.00 0.00 0.00 0.00 0.00 0.00 0.00 0.01 0.47 0.40 0.38 0.05 0.15 0.05 0.09 0.07 0.03 0.01 0.00 0.00 0.00 0.00 0.00 0.00 0.00 0.00 0.00 0.00
nan nan nan nan nan nan nan nan nan nan nan nan nan nan nan nan nan nan 0.00 0.00 0.00 0.08 0.34 0.34 0.00 0.00 0.00 0.00 0.00 0.00 0.00 0.00 0.00 0.14 0.35 0.33 0.03 0.12 0.00 0.03 0.13 0.01 0.01 0.23 0.33 0.00 0.00 0.00 0.00 0.00 0.00 0.00 0.00 0.00
nan nan nan nan nan nan nan nan nan nan nan nan nan nan nan nan nan 0.00 2.92 0.00 0.00 0.00 0.20 0.84 0.00 0.00 0.00 0.00 0.00 0.00 0.00 0.00 0.00 0.01 0.10 0.03 0.00 0.05 0.43 0.12 0.00 0.00 0.00 0.00 0.07 0.00 0.00 0.00 0.00 0.00 0.00 0.00 0.00 0.00
nan nan nan nan nan nan nan nan nan nan nan nan nan nan nan nan 0.00 0.39 0.06 0.00 nan 0.00 0.46 0.46 0.28 0.00 0.00 0.00 0.00 0.00 0.00 0.00 0.00 0.00 0.04 0.00 0.01 0.06 0.20 0.08 0.00 0.00 0.00 0.00 0.00 0.00 0.09 0.00 0.16 0.00 0.00 0.00 0.00 0.00
nan nan nan nan nan nan nan nan nan nan nan nan nan nan nan nan nan 0.03 0.00 nan nan 0.04 0.05 0.91 0.61 0.38 0.00 0.18 0.28 0.00 0.09 0.05 0.06 0.01 0.05 0.02 0.00 0.04 0.19 0.00 0.00 0.00 0.00 0.00 0.00 0.00 0.00 0.00 0.00 0.00 0.00 0.00 0.00 0.00
nan nan nan nan nan nan nan nan nan nan nan nan nan nan 0.00 0.13 0.51 0.01 nan nan 0.00 0.17 0.60 0.66 0.39 1.81 0.00 0.09 0.07 0.07 0.04 0.82 0.03 0.30 0.09 0.02 0.10 0.27 0.00 0.00 0.00 0.00 0.00 0.00 0.00 0.00 0.00 0.00 0.00 0.00 0.00 0.00 0.00 0.00
nan nan nan nan nan nan nan nan nan nan nan nan 0.00 0.41 3.37 0.09 nan nan 0.21 1.39 1.17 0.28 0.18 0.37 0.00 0.57 0.12 0.10 0.48 0.25 0.27 0.23 0.56 0.22 0.01 0.27 0.05 0.01 0.01 0.01 0.00 0.02 0.00 0.00 0.06 0.09 0.05 0.04 0.00 0.00 0.00 0.00 0.00 0.00
nan nan nan nan nan nan nan nan nan nan nan 0.06 0.81 0.45 0.00 nan 0.01 0.19 1.95 1.12 0.35 0.43 0.09 0.13 0.00 0.08 0.00 0.45 0.40 0.06 0.43 0.26 0.59 0.07 0.23 0.20 0.21 0.05 0.01 0.04 0.03 0.03 0.01 0.01 0.00 0.00 0.00 0.00 0.00 0.00 0.00 0.00 0.00 0.00
nan nan nan nan nan nan nan nan nan 0.00 0.02 0.00 0.00 0.00 0.00 0.19 1.00 0.71 1.10 0.41 0.09 0.09 0.20 0.20 0.27 0.07 0.19 0.00 0.34 0.31 0.16 0.27 0.04 0.04 0.87 0.35 0.23 0.10 0.03 0.15 0.05 0.00 0.00 0.00 0.00 0.00 0.00 0.00 0.00 0.00 0.00 0.01 0.01 0.05
nan nan nan nan nan nan nan nan nan nan nan 0.00 0.18 0.32 0.52 1.06 5.61 0.53 0.86 0.35 1.26 0.14 0.21 0.12 1.49 0.17 0.19 0.07 0.39 0.49 1.20 1.16 0.12 2.72 0.28 0.17 0.02 0.15 0.04 0.00 0.00 0.00 0.00 0.00 0.00 0.00 0.00 0.01 0.00 0.02 0.09 0.09 0.20 0.16
nan nan nan nan nan nan nan nan nan 0.00 0.02 0.36 0.28 5.19 1.68 0.85 0.25 0.17 0.11 0.07 0.11 0.09 0.14 0.18 0.50 0.39 0.23 0.42 0.33 0.98 0.24 0.36 1.62 1.01 0.40 0.25 0.21 0.00 0.00 0.00 0.00 0.01 0.02 0.03 0.04 0.03 0.05 0.08 0.15 0.28 0.57 0.59 0.31 0.08
nan nan nan nan nan nan nan nan nan 0.00 0.16 0.84 0.28 2.81 0.94 0.24 0.24 0.28 0.19 0.16 0.09 0.13 0.37 0.93 0.46 0.19 0.46 0.85 0.24 0.15 1.20 1.15 0.60 0.62 0.39 0.30 0.04 0.03 0.03 0.02 0.03 0.12 0.50 0.42 0.30 0.59 0.81 0.53 0.31 0.49 0.48 0.31 0.14 0.68
nan nan 0.00 nan nan nan nan nan 0.01 0.06 0.58 0.28 0.14 0.46 0.33 0.87 2.06 1.60 0.65 0.62 0.09 0.11 0.29 0.64 0.46 0.39 0.50 0.34 0.11 0.35 0.16 0.71 0.59 0.35 0.20 0.09 0.01 0.03 0.04 0.13 0.27 0.29 0.35 0.44 0.43 0.38 0.69 0.99 1.01 0.70 0.76 0.80 1.35 1.16
nan 0.00 nan nan nan nan nan 0.02 0.04 0.60 0.39 0.13 2.29 0.41 0.56 0.51 1.19 0.77 0.30 0.19 0.06 0.42 1.70 0.56 0.80 0.21 0.26 0.42 0.07 0.15 0.90 0.55 0.34 0.25 0.16 0.01 0.04 0.10 0.28 0.27 0.49 0.32 0.53 0.56 0.56 0.51 0.57 0.50 0.51 0.38 0.68 0.84 0.65 0.69
0.00 0.00 nan nan nan nan 0.14 0.01 0.73 0.51 0.29 0.42 1.90 1.28 0.49 0.51 0.85 0.70 0.38 0.19 0.30 0.31 0.44 0.45 0.31 0.19 1.04 0.15 0.73 0.57 0.56 0.41 0.21 0.25 0.24 0.16 0.11 0.30 0.14 0.13 0.27 0.23 0.34 0.67 0.43 0.51 0.45 0.42 0.31 0.44 0.25 0.34 0.43 0.55
0.00 0.00 nan nan 0.00 0.09 0.78 0.40 0.11 0.68 0.92 0.46 0.43 0.31 0.31 0.82 0.55 0.35 0.48 0.33 0.24 0.19 0.56 0.31 0.32 0.49 0.66 0.42 0.82 0.64 0.46 0.31 0.42 0.59 0.56 0.57 0.39 0.48 0.47 0.35 0.27 0.33 0.38 0.40 0.31 0.42 0.41 0.26 0.19 0.27 0.28 0.33 0.39 0.51
nan nan nan nan nan 0.40 0.54 0.47 0.03 0.09 0.41 0.52 0.25 0.33 0.36 0.57 0.50 1.58 0.84 0.37 0.26 0.64 0.62 0.50 0.54 0.64 0.53 0.47 0.54 0.65 0.46 0.36 0.26 0.51 0.69 0.82 0.80 0.37 0.50 0.38 0.51 0.31 0.32 0.21 0.43 0.20 0.37 0.38 0.35 0.32 0.32 0.37 0.63 0.82
nan nan nan 0.00 0.00 0.11 0.21 0.24 0.15 0.14 0.24 0.30 0.25 0.13 0.87 0.23 0.54 0.97 0.64 0.12 1.09 0.65 0.44 0.43 0.99 0.63 0.33 0.72 0.47 0.32 0.33 0.14 0.38 0.33 0.44 0.81 0.84 0.46 0.51 0.62 0.41 0.36 0.28 0.43 0.73 0.70 0.46 0.58 0.59 0.50 2.07 2.44 1.45 1.04
0.00 nan 0.03 0.02 0.67 0.69 0.82 0.07 0.09 0.13 0.28 0.26 0.24 0.13 0.82 2.33 2.05 1.06 0.13 0.64 0.44 0.61 0.41 0.48 0.53 0.48 0.38 0.32 0.55 0.11 0.25 0.07 0.11 0.28 0.18 0.21 0.62 0.48 0.52 0.52 0.36 0.59 0.50 0.72 0.43 0.94 0.63 0.42 0.59 0.76 1.54 2.43 0.86 1.05
nan 0.02 0.22 0.17 0.87 1.40 2.33 0.06 0.12 0.11 0.71 0.53 0.21 0.35 0.86 0.77 0.43 0.03 0.95 0.24 0.60 0.70 0.49 0.37 0.23 0.20 0.33 0.28 0.11 0.11 0.21 0.09 0.43 0.59 0.67 0.55 0.43 0.49 0.44 0.42 0.42 0.91 0.74 0.47 0.29 0.49 0.64 0.71 0.86 2.23 1.56 1.65 1.65 3.46
nan 0.24 1.38 1.08 0.86 2.83 0.24 1.38 0.12 0.17 0.21 0.47 0.48 0.59 0.11 0.29 0.13 0.61 0.77 0.80 0.78 0.33 0.32 0.20 0.36 0.47 0.27 0.05 0.30 0.39 0.50 0.27 0.28 0.36 0.41 0.36 0.38 0.51 0.32 0.30 0.38 0.34 0.27 0.24 0.36 0.71 0.75 2.21 1.92 0.94 2.50 4.59 5.41 4.48
2.22 3.42 1.94 3.97 0.87 2.19 1.69 1.21 0.42 0.32 1.14 1.06 0.70 0.84 1.86 0.21 1.06 0.82 0.21 0.72 0.55 0.64 0.54 0.41 0.22 0.27 0.30 0.49 0.41 0.43 0.16 0.26 0.37 0.36 0.43 0.37 0.44 0.46 0.38 0.28 0.29 0.29 0.31 1.50 2.13 2.83 2.86 2.73 2.96 2.74 1.62 5.05 1.58 1.99
4.59 3.65 3.34 1.47 2.79 1.55 1.04 1.66 1.69 1.89 1.04 1.25 1.11 0.51 0.48 1.05 1.03 1.16 0.58 1.10 1.34 0.76 3.14 2.35 1.32 0.47 0.31 0.28 0.34 0.30 0.35 0.32 0.28 0.32 0.41 0.27 0.32 1.02 1.30 1.11 0.90 0.82 0.41 1.05 2.07 3.64 2.64 3.00 3.36 1.61 3.12 1.69 2.31 4.17
4.05 3.51 0.47 0.14 0.19 0.12 1.91 1.73 0.44 1.06 1.24 1.70 1.11 1.45 1.66 2.33 1.89 0.70 0.43 0.46 0.41 0.69 0.42 0.40 0.40 0.34 0.36 0.33 0.32 0.37 0.31 0.34 0.26 0.34 0.28 0.26 0.23 0.22 0.68 1.85 1.00 0.75 0.44 1.00 1.83 4.12 4.13 3.89 4.15 2.63 3.30 3.56 3.88 4.26
1.10 0.55 1.73 1.48 1.92 0.37 1.48 1.00 1.20 1.45 0.96 0.36 0.98 1.61 2.04 1.83 1.06 0.92 0.64 0.65 0.87 0.36 0.31 0.31 0.28 0.26 0.32 0.39 0.49 0.66 0.72 0.65 0.79 0.53 0.42 0.34 0.32 0.72 0.73 0.69 0.65 1.96 1.02 2.50 3.23 3.62 2.73 4.33 4.70 4.67 4.03 4.13 4.54 4.10
1.24 0.80 0.86 1.81 1.07 1.04 1.50 1.68 1.41 0.63 0.34 0.78 2.80 1.42 1.15 0.57 1.38 0.90 0.74 0.76 0.95 0.86 0.89 1.11 1.46 1.88 0.96 0.78 1.20 0.89 1.24 1.51 1.20 1.44 1.88 1.97 1.99 1.84 0.99 1.21 1.36 1.91 1.70 1.92 2.15 2.24 2.26 2.97 3.58 4.07 4.06 4.79 4.54 4.97
1.11 0.64 1.42 1.41 1.38 1.12 2.61 1.72 2.28 1.81 0.22 0.66 0.37 0.31 0.37 1.03 1.58 1.10 1.17 1.08 1.38 3.27 4.98 3.86 3.53 3.33 4.82 3.35 2.76 1.99 2.18 2.92 2.49 3.45 3.69 2.65 2.22 2.09 2.47 3.05 2.90 2.75 2.72 5.35 3.10 1.38 2.38 3.21 3.60 4.77 4.13 3.72 4.08 4.37
0.53 1.74 1.97 1.14 1.79 3.46 3.16 3.60 3.65 1.84 1.95 3.10 3.28 3.42 2.15 1.46 1.74 1.19 0.97 1.49 1.58 5.72 6.11 6.35 6.14 6.38 4.96 3.08 5.12 4.55 3.03 4.73 1.93 1.41 1.40 2.16 2.68 3.62 3.81 3.30 3.31 3.73 3.90 3.63 4.62 3.30 3.11 3.85 4.06 4.10 2.93 2.58 2.63 2.77
2.23 3.57 2.86 1.58 2.39 4.62 2.53 5.71 4.41 3.83 4.94 4.44 5.15 4.28 4.90 3.97 2.28 1.71 1.85 3.15 4.06 4.71 2.71 3.86 5.89 2.62 2.54 2.34 4.06 3.14 3.17 1.86 1.89 1.90 1.97 2.64 3.35 3.87 2.45 2.00 4.57 4.53 3.62 3.96 3.31 3.46 2.85 3.68 3.62 3.85 3.26 2.85 2.58 2.31
5.36 3.80 2.53 2.23 4.79 2.76 3.11 4.07 1.10 3.69 3.23 3.80 4.40 3.82 3.94 3.18 1.96 2.47 1.00 2.76 3.63 3.86 3.19 4.45 4.74 5.68 2.94 2.57 2.34 2.52 2.89 2.12 2.66 3.48 3.07 3.07 3.06 2.96 2.76 4.08 4.87 3.77 2.28 3.19 3.55 3.18 2.76 2.09 2.28 2.54 2.64 2.99 2.70 2.46
SL_Ratio
nan nan nan nan nan nan nan nan nan nan nan nan nan nan nan nan nan nan nan nan 3.0 4.0 3.8 nan nan 4.4 4.3 4.3 5.2 3.8 5.7 5.2 4.9 5.8 6.0 5.9 4.8 5.0 4.8 nan nan 5.2 6.2 5.8 6.4 8.3 10.0 10.0 5.0 7.8 5.8 nan nan nan
nan nan nan nan nan nan nan nan nan nan nan nan nan nan nan nan nan nan 2.5 nan nan 3.1 3.8 nan nan nan 0.0 5.0 4.6 3.9 5.0 4.8 4.3 5.6 5.9 6.2 7.0 6.1 6.0 5.1 0.0 6.0 6.3 6.2 6.5 6.1 4.1 nan 10.0 nan nan nan nan nan
nan nan nan nan nan nan nan nan nan nan nan nan nan nan nan nan nan nan nan nan 3.5 3.7 4.1 4.1 nan nan nan nan nan 5.5 5.3 4.3 4.3 4.4 5.4 5.3 5.9 5.2 5.6 5.3 4.6 5.4 nan 5.4 5.2 5.0 nan nan nan nan nan nan nan nan
nan nan nan nan nan nan nan nan nan nan nan nan nan nan nan nan nan nan 2.5 nan 3.7 4.0 4.4 3.7 nan nan nan nan nan nan nan nan nan 5.0 5.1 5.4 5.0 4.0 4.8 4.5 4.0 3.3 2.9 4.8 3.8 nan nan nan nan nan nan nan nan nan
nan nan nan nan nan nan nan nan nan nan nan nan nan nan nan nan nan nan nan nan nan 4.4 4.3 4.0 nan nan nan nan nan nan nan nan 7.5 5.1 4.4 4.7 3.7 4.3 nan 3.6 2.8 3.0 3.2 3.7 3.6 0.0 nan nan nan nan nan nan nan nan
nan nan nan nan nan nan nan nan nan nan nan nan nan nan nan nan nan nan 2.7 nan nan nan 3.8 4.6 4.0 nan nan nan nan nan nan nan 5.0 3.5 3.5 3.7 nan 4.4 4.9 4.6 nan nan nan nan 2.6 nan nan nan nan nan nan nan nan nan
nan nan nan nan nan nan nan nan nan nan nan nan nan nan nan nan nan 2.8 3.6 nan nan nan 3.7 4.0 4.1 nan nan nan nan nan nan nan nan nan 3.4 nan 3.5 4.9 4.1 4.2 nan nan nan nan nan nan 3.0 5.0 2.7 nan nan nan nan nan
nan nan nan nan nan nan nan nan nan nan nan nan nan nan nan nan nan 2.6 nan nan nan 3.4 3.1 4.1 4.2 3.3 nan 3.2 3.6 nan 3.0 3.1 3.8 3.9 3.3 3.5 nan 3.6 5.6 nan nan nan nan nan nan nan nan nan nan nan nan nan nan nan
nan nan nan nan nan nan nan nan nan nan nan nan nan nan nan 2.5 2.9 3.1 nan nan nan 3.9 4.6 3.2 3.4 4.3 nan 3.0 3.0 3.5 3.0 4.3 3.7 4.2 3.6 5.4 4.3 6.2 nan nan nan nan nan nan nan nan nan nan nan nan nan nan nan nan
nan nan nan nan nan nan nan nan nan nan nan nan nan 3.0 3.3 3.2 nan nan 2.9 3.3 3.8 3.7 4.5 4.0 2.5 4.0 3.7 3.1 3.8 4.3 4.3 4.0 4.3 3.9 5.0 5.0 4.9 4.4 5.0 4.3 3.3 4.7 0.0 nan 5.5 5.5 4.8 5.0 6.3 nan nan nan nan nan
nan nan nan nan nan nan nan nan nan nan nan 2.8 3.5 3.1 nan nan 4.2 4.0 4.1 4.3 3.8 4.4 3.9 4.1 4.0 2.8 5.0 4.1 3.4 3.1 3.4 3.5 4.2 3.9 4.5 4.4 4.9 4.0 5.0 4.6 4.8 4.9 4.9 5.0 nan nan nan nan nan nan nan nan nan nan
nan nan nan nan nan nan nan nan nan nan 2.5 nan 3.3 nan 0.0 3.5 4.2 4.1 3.9 3.5 3.8 4.6 4.4 4.1 4.6 4.3 4.2 5.0 4.2 3.3 3.9 3.6 5.0 4.0 4.1 4.1 3.9 2.5 4.7 5.0 4.9 10.0 5.0 nan nan nan nan nan nan nan 5.0 3.7 3.8 4.1
nan nan nan nan nan nan nan nan nan nan nan nan 3.8 4.3 4.3 3.4 5.2 3.6 4.0 3.4 3.3 3.3 3.4 3.2 3.6 4.1 4.3 4.7 3.4 3.8 3.6 3.7 4.1 4.3 3.9 4.1 4.3 3.6 4.8 4.2 3.3 nan nan nan 3.3 nan nan 3.5 nan 3.5 4.3 4.3 4.5 5.6
nan nan nan nan nan nan nan nan nan nan 3.5 4.3 4.3 6.1 3.2 3.0 3.0 2.8 3.0 2.6 2.5 2.6 4.4 4.9 5.0 5.4 4.3 4.3 3.4 3.6 2.9 3.5 4.0 4.9 4.2 4.5 4.4 5.0 nan 0.0 nan 3.5 3.5 4.0 3.1 3.4 3.5 4.1 4.5 4.0 4.1 4.4 5.0 6.4
nan nan nan nan nan nan nan nan nan nan 3.8 4.4 4.1 5.2 3.4 2.9 2.7 2.6 2.6 2.7 2.6 4.1 4.7 5.2 5.0 5.2 4.4 3.5 3.0 3.1 3.4 3.4 3.8 4.5 4.5 4.3 5.0 5.0 3.4 3.6 3.7 4.2 4.1 4.6 3.9 3.7 4.0 4.7 5.9 6.5 6.0 6.2 6.2 6.0
nan nan nan nan nan nan nan nan 2.5 2.9 4.3 4.4 4.5 3.7 3.3 3.0 3.0 2.5 2.5 2.6 3.7 3.2 4.0 4.6 5.1 4.2 3.6 3.1 4.1 3.0 4.0 4.3 4.5 4.3 3.5 3.1 3.7 3.7 3.7 4.3 4.6 4.5 4.7 4.9 4.7 5.3 5.3 5.7 5.8 6.7 6.5 7.2 5.8 5.8
nan 2.5 nan nan nan nan nan 2.4 2.5 4.6 4.5 5.0 3.7 3.2 2.9 2.9 3.2 2.9 2.7 3.1 2.5 3.8 3.4 4.2 5.0 6.4 4.2 4.5 6.6 4.1 3.8 4.8 4.3 4.2 3.6 3.4 3.8 4.2 4.7 5.1 5.2 5.3 5.5 5.8 5.9 6.1 6.7 6.1 6.5 7.2 7.9 8.3 7.7 7.9
nan nan nan nan nan nan 2.5 3.5 4.5 4.7 5.6 3.7 4.1 3.9 3.3 3.4 3.3 3.0 2.9 2.9 3.3 4.1 4.5 5.5 4.7 5.5 3.8 4.6 4.3 4.8 5.0 4.1 3.6 3.6 3.8 3.7 4.1 4.5 4.4 4.7 5.3 5.2 5.8 6.5 6.8 6.9 6.9 6.9 7.0 5.5 6.9 7.3 8.5 9.5
nan nan nan nan nan 3.3 4.6 4.9 4.8 5.3 4.2 3.5 3.6 3.2 3.2 3.6 3.2 3.2 2.9 2.7 3.5 3.9 4.7 4.2 4.7 4.7 4.2 4.9 5.1 4.3 3.9 3.9 4.7 4.4 4.7 4.9 4.7 5.3 5.6 5.5 5.5 5.7 6.9 6.5 5.9 5.3 5.3 5.9 5.3 5.2 5.3 5.4 5.9 6.4
nan nan nan nan nan 4.4 5.6 4.6 3.8 4.0 3.6 4.0 3.2 3.6 3.6 4.0 3.4 2.9 2.9 3.6 3.7 4.7 5.0 4.7 4.6 4.6 4.8 4.5 4.1 4.2 3.9 3.6 4.1 5.1 5.4 5.2 4.6 5.2 5.2 5.1 4.9 5.1 5.1 5.5 5.1 4.1 5.0 5.1 5.3 5.3 5.5 5.5 5.4 5.9
nan nan nan nan nan 4.4 4.8 3.8 5.2 3.1 3.1 3.9 3.3 3.1 4.4 3.1 3.4 3.4 3.5 3.2 4.0 4.6 4.7 4.3 4.5 4.6 4.5 4.2 3.7 3.5 3.9 3.7 4.4 4.5 4.7 6.8 5.0 4.5 4.7 4.7 4.5 4.4 4.6 5.4 5.0 5.7 4.8 5.6 5.9 5.7 4.2 4.0 4.2 4.1
nan nan 3.1 4.0 4.7 5.2 4.6 2.8 3.1 3.3 3.5 3.1 3.3 3.1 3.6 3.6 3.5 3.5 2.9 3.8 4.6 5.1 4.3 4.5 4.6 4.5 4.6 4.7 4.5 4.4 4.3 4.5 4.7 4.2 4.3 4.5 5.6 5.2 5.2 5.0 4.8 5.2 5.1 4.8 5.0 4.9 5.3 5.5 5.1 4.9 4.4 4.0 4.2 4.3
nan 2.9 4.1 4.6 5.0 5.9 4.8 2.8 4.5 3.1 3.7 3.4 3.1 3.6 3.6 3.7 3.4 2.7 3.8 4.3 5.0 4.4 4.4 4.6 4.7 4.7 4.9 5.0 5.0 4.8 4.5 4.7 4.8 4.8 4.8 4.8 4.8 4.4 4.6 4.8 4.4 4.5 5.0 5.4 4.7 4.6 4.6 3.4 4.3 4.1 4.2 4.4 4.6 4.9
nan 3.9 3.9 3.9 5.5 4.8 2.8 3.4 3.8 3.4 3.3 3.4 3.7 3.9 3.9 3.5 3.2 3.8 4.4 5.3 5.5 4.5 4.8 5.3 4.4 4.7 4.7 5.4 5.0 5.0 4.6 4.2 4.6 4.7 4.3 4.6 5.0 5.3 4.8 4.8 4.6 4.3 4.5 4.6 4.2 3.9 4.1 4.0 3.3 4.5 4.4 4.3 4.2 4.6
5.9 5.8 3.3 7.6 3.2 3.7 3.6 3.4 3.5 3.9 4.5 4.0 4.8 4.0 4.3 3.6 4.6 4.1 4.9 6.0 5.6 5.4 5.4 4.5 4.4 4.4 5.0 4.9 5.0 5.1 5.4 4.3 5.1 5.4 4.8 4.5 4.7 4.8 5.2 5.1 5.1 4.8 4.1 3.8 4.1 3.9 4.1 4.1 4.2 4.3 4.5 4.4 5.1 5.0
8.0 3.4 4.7 4.0 4.6 4.7 5.5 5.4 5.3 4.6 4.7 4.7 4.2 3.8 2.9 3.9 5.1 6.0 7.1 6.3 5.7 6.2 5.2 5.7 6.0 5.4 5.6 4.9 5.8 6.4 5.6 4.6 4.6 5.2 5.6 4.9 4.9 4.6 4.8 5.3 5.4 5.3 4.1 3.6 4.0 4.0 4.1 4.2 4.4 4.6 4.7 4.3 3.5 4.5
8.4 4.3 5.0 4.9 3.7 4.1 4.6 3.9 4.5 4.2 5.1 5.5 5.2 4.7 4.6 6.4 5.5 6.7 6.9 6.8 6.7 6.7 5.3 5.0 5.1 5.4 6.0 5.8 5.3 5.4 4.9 4.6 4.8 5.2 4.7 4.6 4.5 4.5 4.1 4.7 5.3 5.1 4.1 3.7 3.6 3.7 4.0 4.2 4.2 4.6 4.7 4.3 4.4 4.5
5.3 4.7 7.1 4.2 4.2 3.6 4.7 4.4 4.6 5.2 4.8 4.7 4.9 5.7 5.4 5.7 7.7 8.2 9.2 7.7 6.6 5.1 4.9 4.6 4.4 5.0 5.5 5.7 6.0 5.6 4.7 4.6 4.3 4.2 4.0 3.9 4.1 4.3 4.5 3.9 3.8 3.0 3.7 3.8 3.6 3.9 4.0 4.0 4.2 4.2 4.5 4.8 5.5 4.9
5.4 4.4 4.3 8.3 5.8 4.6 6.0 5.4 5.5 5.7 5.4 4.5 5.0 6.8 6.8 8.7 8.4 9.0 9.6 8.4 6.4 5.9 6.3 6.3 7.0 5.3 5.7 5.5 5.8 5.5 5.3 5.4 5.0 5.9 5.2 6.1 5.2 5.4 4.8 4.4 4.3 4.3 4.3 4.4 3.0 3.5 3.9 4.4 4.4 4.5 3.8 4.7 4.8 4.9
5.8 3.6 4.9 5.9 8.7 6.9 6.7 6.3 6.1 6.1 6.3 5.8 5.3 6.0 7.1 9.2 9.5 8.3 8.0 7.8 7.3 6.3 5.7 5.9 6.0 5.7 5.9 6.3 6.6 6.1 5.2 4.8 5.2 5.8 6.2 6.5 6.3 6.1 5.7 4.7 4.5 4.3 4.3 4.0 4.8 5.5 3.4 4.8 3.9 5.2 5.7 6.5 6.1 6.8
3.7 3.9 4.4 4.6 6.4 5.7 5.9 5.3 5.3 5.7 5.3 5.1 5.1 5.4 6.5 7.8 8.2 8.5 8.5 8.1 7.5 5.5 5.3 5.6 5.6 5.1 5.8 6.6 5.9 6.1 7.0 5.7 6.6 6.6 6.2 6.0 6.5 5.6 5.2 5.0 4.6 4.4 4.3 4.5 4.6 5.5 6.3 6.2 5.5 5.6 6.6 6.5 7.5 8.0
4.7 4.5 6.8 7.2 6.3 5.5 5.5 4.9 4.9 5.0 5.0 5.5 5.7 5.4 6.0 6.5 7.9 8.4 8.6 7.3 6.6 6.2 3.4 6.7 6.1 7.3 6.9 6.7 5.7 5.9 3.2 7.4 7.5 7.6 6.3 6.8 6.3 6.1 5.9 5.9 5.0 4.6 4.7 4.8 5.1 5.4 5.5 6.2 6.7 6.6 7.1 7.1 7.6 8.2
4.7 4.7 5.4 5.7 5.6 5.4 5.8 5.1 5.2 5.7 5.9 6.3 6.5 6.5 6.5 7.1 8.6 8.5 9.3 7.7 7.4 7.1 7.5 6.8 6.6 6.1 6.9 6.6 7.0 7.1 4.2 7.4 5.3 3.0 3.0 3.0 3.0 3.6 6.7 6.1 5.6 6.0 6.1 6.2 6.1 6.3 6.2 6.6 7.7 7.1 7.8 8.4 8.7 9.0